(°C)
29°
28°
26°
24°
23°
22°
22°
(°C)
29°
27°
26°
25°
25°
24°
24°
Ю
Ю
Ю
ЮЮЗ
ЮЮЗ
Ю
Ю
(км/ч)
15-24
15-24
13-23
10-19
6-14
4-9
3-8
(мм)
0
0
0
0
0
0
0
(%)
12
5
0
0
0
0
0

Высота солнцестояния

/ 22.3°
sun-icon
UV 6
07:46
20:12
Растущая луна (137°)
18:42
03:38

METAR для Алькантарилья (LERI)

Время Условия Температура/
Точка росы
Ветер Видимость Погода Облачность Давление Изменить Необработанный
VFR 31°C / 15°C 150º variable 070º to 240º 13kt Gust 26kt >10km - Few Clouds 6000ft 1012 No Significant change LERI 171530Z 15013G26KT 070V240 9999 FEW060 31/15 Q1012 NOSIG
VFR 32°C / 15°C 150º variable 110º to 210º 14kt Gust 24kt >10km - Few Clouds 6000ft 1012 No Significant change LERI 171500Z 15014G24KT 110V210 9999 FEW060 32/15 Q1012 NOSIG
VFR 32°C / 15°C 150º variable 110º to 200º 16kt >10km - Few Clouds 6000ft 1012 No Significant change LERI 171454Z 15016KT 110V200 9999 FEW060 32/15 Q1012 NOSIG
VFR 31°C / 14°C 80º variable 040º to 140º 8kt >10km - Few Clouds 6000ft 1013 No Significant change LERI 171430Z 08008KT 040V140 9999 FEW060 31/14 Q1013 NOSIG
VFR 32°C / 14°C 130º variable 050º to 220º 5kt >10km - Few Clouds 6000ft 1013 No Significant change LERI 171400Z 13005KT 050V220 9999 FEW060 32/14 Q1013 NOSIG
VFR 30°C / 14°C 150º variable 080º to 210º 5kt >10km - Few Clouds 6000ft 1013 No Significant change LERI 171330Z 15005KT 080V210 9999 FEW060 30/14 Q1013 NOSIG
VFR 32°C / 15°C 160º 3kt >10km - Few Clouds 6000ft 1014 No Significant change LERI 171300Z 16003KT 9999 FEW060 32/15 Q1014 NOSIG
VFR 30°C / 14°C 90º variable 050º to 160º 5kt >10km - Few Clouds 6000ft 1014 No Significant change LERI 171230Z 09005KT 050V160 9999 FEW060 30/14 Q1014 NOSIG
VFR 30°C / 14°C variable 4kt >10km - Few Clouds 6000ft 1015 No Significant change LERI 171200Z VRB04KT 9999 FEW060 30/14 Q1015 NOSIG
VFR 30°C / 14°C variable 4kt >10km - Few Clouds 6000ft 1015 No Significant change LERI 171130Z VRB04KT 9999 FEW060TCU 30/14 Q1015 NOSIG
VFR 29°C / 15°C variable 3kt >10km - Few Clouds 6000ft 1016 No Significant change LERI 171100Z VRB03KT 9999 FEW060 29/15 Q1016 NOSIG
VFR 29°C / 15°C 80º 1kt >10km - Few Clouds 6000ft 1016 No Significant change LERI 171030Z 08001KT 9999 FEW060 29/15 Q1016 NOSIG
VFR 27°C / 16°C variable 1kt >10km - Clouds and Visibility OK 1016 No Significant change LERI 171000Z VRB01KT CAVOK 27/16 Q1016 NOSIG
VFR 26°C / 17°C variable 0kt >10km - Clouds and Visibility OK 1017 No Significant change LERI 170930Z 00000KT CAVOK 26/17 Q1017 NOSIG
VFR 24°C / 17°C variable 2kt >10km - Clouds and Visibility OK 1017 No Significant change LERI 170900Z VRB02KT CAVOK 24/17 Q1017 NOSIG
VFR 23°C / 17°C variable 1kt >10km - Clouds and Visibility OK 1017 No Significant change LERI 170830Z VRB01KT CAVOK 23/17 Q1017 NOSIG
VFR 23°C / 17°C variable 1kt >10km - Clouds and Visibility OK 1017 No Significant change LERI 170800Z VRB01KT CAVOK 23/17 Q1017 NOSIG
VFR 20°C / 17°C variable 2kt >10km - Clouds and Visibility OK 1017 No Significant change LERI 170730Z VRB02KT CAVOK 20/17 Q1017 NOSIG
VFR 19°C / 17°C 250º variable 220º to 280º 3kt >10km - Few Clouds 1000ft 1017 No Significant change LERI 170700Z 25003KT 220V280 9999 FEW010 19/17 Q1017 NOSIG
VFR 18°C / 17°C 220º 1kt >10km - Few Clouds 1000ft 1017 No Significant change LERI 170630Z 22001KT 9999 FEW010 18/17 Q1017 NOSIG
VFR 18°C / 17°C 230º 1kt >10km - Few Clouds 1500ft 1016 No Significant change LERI 170600Z 23001KT 9999 FEW015 18/17 Q1016 NOSIG
VFR 26°C / 17°C 170º variable 140º to 220º 8kt >10km - Few Clouds 5000ft 1015 No Significant change LERI 161800Z 17008KT 140V220 9999 FEW050 26/17 Q1015 NOSIG
VFR 27°C / 16°C 160º variable 140º to 200º 11kt >10km - Few Clouds 5000ft 1015 No Significant change LERI 161730Z 16011KT 140V200 9999 FEW050 27/16 Q1015 NOSIG
VFR 28°C / 15°C 170º variable 140º to 200º 13kt >10km - Few Clouds 5000ft 1015 No Significant change LERI 161700Z 17013KT 140V200 9999 FEW050CB 28/15 Q1015 NOSIG

VFR

31°C / 15°C

[Больше]
Ветер 150º variable 070º to 240º 13kt Gust 26kt
Видимость >10km
Погода -
Облачность Few Clouds 6000ft
Давление 1012
Изменить No Significant change
Необработанный LERI 171530Z 15013G26KT 070V240 9999 FEW060 31/15 Q1012 NOSIG

VFR

32°C / 15°C

[Больше]
Ветер 150º variable 110º to 210º 14kt Gust 24kt
Видимость >10km
Погода -
Облачность Few Clouds 6000ft
Давление 1012
Изменить No Significant change
Необработанный LERI 171500Z 15014G24KT 110V210 9999 FEW060 32/15 Q1012 NOSIG

VFR

32°C / 15°C

[Больше]
Ветер 150º variable 110º to 200º 16kt
Видимость >10km
Погода -
Облачность Few Clouds 6000ft
Давление 1012
Изменить No Significant change
Необработанный LERI 171454Z 15016KT 110V200 9999 FEW060 32/15 Q1012 NOSIG

VFR

31°C / 14°C

[Больше]
Ветер 80º variable 040º to 140º 8kt
Видимость >10km
Погода -
Облачность Few Clouds 6000ft
Давление 1013
Изменить No Significant change
Необработанный LERI 171430Z 08008KT 040V140 9999 FEW060 31/14 Q1013 NOSIG

VFR

32°C / 14°C

[Больше]
Ветер 130º variable 050º to 220º 5kt
Видимость >10km
Погода -
Облачность Few Clouds 6000ft
Давление 1013
Изменить No Significant change
Необработанный LERI 171400Z 13005KT 050V220 9999 FEW060 32/14 Q1013 NOSIG

VFR

30°C / 14°C

[Больше]
Ветер 150º variable 080º to 210º 5kt
Видимость >10km
Погода -
Облачность Few Clouds 6000ft
Давление 1013
Изменить No Significant change
Необработанный LERI 171330Z 15005KT 080V210 9999 FEW060 30/14 Q1013 NOSIG

VFR

32°C / 15°C

[Больше]
Ветер 160º 3kt
Видимость >10km
Погода -
Облачность Few Clouds 6000ft
Давление 1014
Изменить No Significant change
Необработанный LERI 171300Z 16003KT 9999 FEW060 32/15 Q1014 NOSIG

VFR

30°C / 14°C

[Больше]
Ветер 90º variable 050º to 160º 5kt
Видимость >10km
Погода -
Облачность Few Clouds 6000ft
Давление 1014
Изменить No Significant change
Необработанный LERI 171230Z 09005KT 050V160 9999 FEW060 30/14 Q1014 NOSIG

VFR

30°C / 14°C

[Больше]
Ветер variable 4kt
Видимость >10km
Погода -
Облачность Few Clouds 6000ft
Давление 1015
Изменить No Significant change
Необработанный LERI 171200Z VRB04KT 9999 FEW060 30/14 Q1015 NOSIG

VFR

30°C / 14°C

[Больше]
Ветер variable 4kt
Видимость >10km
Погода -
Облачность Few Clouds 6000ft
Давление 1015
Изменить No Significant change
Необработанный LERI 171130Z VRB04KT 9999 FEW060TCU 30/14 Q1015 NOSIG

VFR

29°C / 15°C

[Больше]
Ветер variable 3kt
Видимость >10km
Погода -
Облачность Few Clouds 6000ft
Давление 1016
Изменить No Significant change
Необработанный LERI 171100Z VRB03KT 9999 FEW060 29/15 Q1016 NOSIG

VFR

29°C / 15°C

[Больше]
Ветер 80º 1kt
Видимость >10km
Погода -
Облачность Few Clouds 6000ft
Давление 1016
Изменить No Significant change
Необработанный LERI 171030Z 08001KT 9999 FEW060 29/15 Q1016 NOSIG

VFR

27°C / 16°C

[Больше]
Ветер variable 1kt
Видимость >10km
Погода -
Облачность Clouds and Visibility OK
Давление 1016
Изменить No Significant change
Необработанный LERI 171000Z VRB01KT CAVOK 27/16 Q1016 NOSIG

VFR

26°C / 17°C

[Больше]
Ветер variable 0kt
Видимость >10km
Погода -
Облачность Clouds and Visibility OK
Давление 1017
Изменить No Significant change
Необработанный LERI 170930Z 00000KT CAVOK 26/17 Q1017 NOSIG

VFR

24°C / 17°C

[Больше]
Ветер variable 2kt
Видимость >10km
Погода -
Облачность Clouds and Visibility OK
Давление 1017
Изменить No Significant change
Необработанный LERI 170900Z VRB02KT CAVOK 24/17 Q1017 NOSIG

VFR

23°C / 17°C

[Больше]
Ветер variable 1kt
Видимость >10km
Погода -
Облачность Clouds and Visibility OK
Давление 1017
Изменить No Significant change
Необработанный LERI 170830Z VRB01KT CAVOK 23/17 Q1017 NOSIG

VFR

23°C / 17°C

[Больше]
Ветер variable 1kt
Видимость >10km
Погода -
Облачность Clouds and Visibility OK
Давление 1017
Изменить No Significant change
Необработанный LERI 170800Z VRB01KT CAVOK 23/17 Q1017 NOSIG

VFR

20°C / 17°C

[Больше]
Ветер variable 2kt
Видимость >10km
Погода -
Облачность Clouds and Visibility OK
Давление 1017
Изменить No Significant change
Необработанный LERI 170730Z VRB02KT CAVOK 20/17 Q1017 NOSIG

VFR

19°C / 17°C

[Больше]
Ветер 250º variable 220º to 280º 3kt
Видимость >10km
Погода -
Облачность Few Clouds 1000ft
Давление 1017
Изменить No Significant change
Необработанный LERI 170700Z 25003KT 220V280 9999 FEW010 19/17 Q1017 NOSIG

VFR

18°C / 17°C

[Больше]
Ветер 220º 1kt
Видимость >10km
Погода -
Облачность Few Clouds 1000ft
Давление 1017
Изменить No Significant change
Необработанный LERI 170630Z 22001KT 9999 FEW010 18/17 Q1017 NOSIG

VFR

18°C / 17°C

[Больше]
Ветер 230º 1kt
Видимость >10km
Погода -
Облачность Few Clouds 1500ft
Давление 1016
Изменить No Significant change
Необработанный LERI 170600Z 23001KT 9999 FEW015 18/17 Q1016 NOSIG

VFR

26°C / 17°C

[Больше]
Ветер 170º variable 140º to 220º 8kt
Видимость >10km
Погода -
Облачность Few Clouds 5000ft
Давление 1015
Изменить No Significant change
Необработанный LERI 161800Z 17008KT 140V220 9999 FEW050 26/17 Q1015 NOSIG

VFR

27°C / 16°C

[Больше]
Ветер 160º variable 140º to 200º 11kt
Видимость >10km
Погода -
Облачность Few Clouds 5000ft
Давление 1015
Изменить No Significant change
Необработанный LERI 161730Z 16011KT 140V200 9999 FEW050 27/16 Q1015 NOSIG

VFR

28°C / 15°C

[Больше]
Ветер 170º variable 140º to 200º 13kt
Видимость >10km
Погода -
Облачность Few Clouds 5000ft
Давление 1015
Изменить No Significant change
Необработанный LERI 161700Z 17013KT 140V200 9999 FEW050CB 28/15 Q1015 NOSIG

TAF для Алькантарилья (LERI)

From till


Maximum Temperature 32ºC on . Minimum Temperature 17ºC on .
From till Wind variable 2kt. Visibility 10km or more. Few Clouds 3500ft.
Becoming from till Wind 180º 10kt. Visibility 10km or more. Few Clouds 3500ft.
Becoming from till Wind variable 2kt. Visibility 10km or more. Few Clouds 3500ft.

Необработанный: TAF LERI 171100Z 1712/1812 VRB02KT 9999 FEW035 TX32/1714Z TN17/1806Z BECMG 1713/1715 18010KT BECMG 1719/1721 VRB02KT

Текущие спутниковые изображения и снимки дождя для Алькантарилья, Испания

Указатель местности находится на Алькантарилья. [Больше]

Спутниковое изображение в реальном времени сочетает в себе видимый свет в дневное время с инфракрасным излучением в ночное время. Ночью изображение получается не темным, так как инфракрасное излучение может обнаружить разницу температур. К сожалению, низкие облака и туман трудно отличить от температуры у поверхности земли и поэтому могут быть почти незаметны ночью. Спутниковые снимки Meteosat для Европы обновляются каждые 5 минут в режиме реального времени.Снимки GOES-16/GOES-17 (Северная и Южная Америка) и Химавари (Азия) обновляются каждые 10 минут.

Вероятность осадков оценивается по данным радиолокаторов и спутников. Спутниковые данные о возможности осадков в ночное время менее точные, чем дневные данные. Оранжевыми крестами отмечаются места,где обнаруживается молния (болееЕвропа).

Копирайт 2021 EUMETSAT / meteoblue. Данные о молниях предоставляются со стороны nowcast.

Радар Алькантарилья

Морось
Незначительные
Умеренные
Сильные
Очень Сильные
Град

Индикатор местности находится на Алькантарилья. Эта анимация показывает радар осадков за последний 1 час. Морось или небольшой снег могут быть невидимы для радара. Интенсивность осадков имеет цветовую кодировку - от светло-голубого до оранжевого.
Radar data source: AEMET.

Погода в настоящий момент и предупреждения

EUMETNET – MeteoAlarm

pictomap

Источник: AEMET

Возможны временные задержки между сведениями данного веб сайта и веб сайта www.meteoalarm.eu, для получения наиболее недавней информации о сигнальных уровнях, публикуемых со стороны National Meteorological Services, полжалуйста, используйте www.meteoalarm.eu.